• In Portugal
  • List of Countries
  • For 7 days
  • Water Temperature
  • Satellite Maps
  • Weather Map
  • Weather Widgets
  • user-avatar
    Login

    Hourly Weather Canillo

    Today, 16 December, Saturday

    Time Temperature Precipitation Wind Pressure Humidity
    00:00 -8°C° 0 mm 3 mps 610 mmHg 78%
    01:00 -8°C° 0.1 mm 3 mps 611 mmHg 79%
    02:00 -8°C° 0.1 mm 3 mps 611 mmHg 80%
    03:00 -7°C° 0.1 mm 3 mps 611 mmHg 81%
    04:00 -8°C° 0 mm 3 mps 612 mmHg 81%
    05:00 -8°C° 0 mm 3 mps 612 mmHg 81%
    06:00 -8°C° 0 mm 2 mps 612 mmHg 83%
    07:00 -7°C° 0 mm 2 mps 613 mmHg 79%
    08:00 -7°C° 0 mm 3 mps 614 mmHg 74%
    09:00 -6°C° 0 mm 3 mps 614 mmHg 70%
    10:00 -6°C° 0 mm 3 mps 615 mmHg 65%
    11:00 -5°C° 0 mm 3 mps 616 mmHg 60%
    12:00 -4°C° 0 mm 4 mps 616 mmHg 54%
    13:00 -4°C° 0 mm 4 mps 616 mmHg 56%
    14:00 -5°C° 0 mm 3 mps 616 mmHg 58%
    15:00 -5°C° 0 mm 3 mps 616 mmHg 59%
    16:00 -6°C° 0 mm 3 mps 616 mmHg 64%
    17:00 -8°C° 0 mm 3 mps 616 mmHg 69%
    18:00 -9°C° 0 mm 3 mps 616 mmHg 73%
    19:00 -9°C° 0.1 mm 3 mps 617 mmHg 74%
    20:00 -9°C° 0.1 mm 3 mps 617 mmHg 75%
    21:00 -9°C° 0.1 mm 3 mps 618 mmHg 75%
    22:00 -9°C° 0.1 mm 3 mps 618 mmHg 76%
    23:00 -9°C° 0.1 mm 3 mps 618 mmHg 76%

    Tomorrow, 17 December, Sunday

    Time Temperature Precipitation Wind Pressure Humidity
    00:00 -9°C° 0.1 mm 3 mps 618 mmHg 77%
    01:00 -9°C° 0 mm 3 mps 619 mmHg 77%
    02:00 -10°C° 0 mm 3 mps 619 mmHg 77%
    03:00 -10°C° 0 mm 3 mps 619 mmHg 77%
    04:00 -10°C° 0 mm 3 mps 619 mmHg 76%
    05:00 -10°C° 0 mm 3 mps 619 mmHg 74%
    06:00 -12°C° 0 mm 3 mps 619 mmHg 73%
    07:00 -10°C° 0 mm 3 mps 620 mmHg 70%
    08:00 -9°C° 0 mm 3 mps 621 mmHg 67%
    09:00 -8°C° 0 mm 3 mps 621 mmHg 65%
    10:00 -6°C° 0 mm 3 mps 622 mmHg 61%
    11:00 -5°C° 0 mm 3 mps 622 mmHg 58%
    12:00 -3°C° 0 mm 4 mps 623 mmHg 54%
    13:00 -4°C° 0 mm 4 mps 623 mmHg 57%
    14:00 -4°C° 0 mm 3 mps 623 mmHg 61%
    15:00 -4°C° 0 mm 3 mps 622 mmHg 64%
    16:00 -5°C° 0 mm 3 mps 622 mmHg 68%
    17:00 -5°C° 0 mm 3 mps 622 mmHg 73%
    18:00 -6°C° 0 mm 3 mps 622 mmHg 77%
    19:00 -6°C° 0 mm 3 mps 623 mmHg 79%
    20:00 -6°C° 0 mm 3 mps 623 mmHg 80%
    21:00 -6°C° 0 mm 3 mps 623 mmHg 81%
    22:00 -6°C° 0 mm 3 mps 623 mmHg 81%
    23:00 -6°C° 0 mm 3 mps 623 mmHg 81%

    Day after tomorrow, 18 December, Monday

    Time Temperature Precipitation Wind Pressure Humidity
    00:00 -6°C° 0 mm 3 mps 624 mmHg 82%
    01:00 -7°C° 0 mm 3 mps 623 mmHg 81%
    02:00 -7°C° 0 mm 3 mps 623 mmHg 81%
    03:00 -7°C° 0 mm 3 mps 623 mmHg 81%
    04:00 -7°C° 0 mm 3 mps 623 mmHg 81%
    05:00 -7°C° 0 mm 3 mps 623 mmHg 81%
    06:00 -7°C° 0 mm 3 mps 623 mmHg 81%
    07:00 -6°C° 0 mm 3 mps 624 mmHg 78%
    08:00 -5°C° 0 mm 3 mps 625 mmHg 75%
    09:00 -4°C° 0 mm 3 mps 625 mmHg 72%
    10:00 -2°C° 0 mm 3 mps 625 mmHg 70%
    11:00 0°C° 0 mm 3 mps 625 mmHg 69%
    12:00 +1°C° 0 mm 3 mps 626 mmHg 67%
    13:00 0°C° 0.1 mm 3 mps 625 mmHg 70%
    14:00 0°C° 0.1 mm 3 mps 624 mmHg 72%
    15:00 -1°C° 0.1 mm 3 mps 624 mmHg 75%
    16:00 -1°C° 0.2 mm 3 mps 623 mmHg 78%
    17:00 -1°C° 0.2 mm 3 mps 623 mmHg 81%
    18:00 -2°C° 0.2 mm 3 mps 623 mmHg 84%
    19:00 -3°C° 0.4 mm 4 mps 623 mmHg 85%
    20:00 -2°C° 0.4 mm 4 mps 623 mmHg 86%
    21:00 -2°C° 0.4 mm 4 mps 622 mmHg 87%
    22:00 -2°C° 0.3 mm 4 mps 622 mmHg 87%
    23:00 -2°C° 0.3 mm 4 mps 622 mmHg 88%

    19 December, Tuesday

    Time Temperature Precipitation Wind Pressure Humidity
    00:00 -2°C° 0.3 mm 4 mps 622 mmHg 88%
    01:00 -3°C° 0.2 mm 4 mps 622 mmHg 89%
    02:00 -3°C° 0.2 mm 4 mps 622 mmHg 89%
    03:00 -4°C° 0.2 mm 4 mps 622 mmHg 90%
    04:00 -4°C° 0 mm 4 mps 623 mmHg 90%
    05:00 -5°C° 0 mm 3 mps 623 mmHg 90%
    06:00 -5°C° 0 mm 3 mps 623 mmHg 89%
    07:00 -5°C° 0 mm 3 mps 623 mmHg 86%
    08:00 -4°C° 0 mm 2 mps 624 mmHg 83%
    09:00 -4°C° 0 mm 2 mps 625 mmHg 80%
    10:00 -2°C° 0 mm 2 mps 625 mmHg 74%
    11:00 -1°C° 0 mm 2 mps 626 mmHg 68%
    12:00 +1°C° 0 mm 2 mps 627 mmHg 62%
    13:00 +1°C° 0 mm 2 mps 626 mmHg 64%
    14:00 -1°C° 0 mm 2 mps 626 mmHg 67%
    15:00 -1°C° 0 mm 2 mps 626 mmHg 69%
    16:00 -3°C° 0 mm 2 mps 626 mmHg 75%
    17:00 -5°C° 0 mm 2 mps 625 mmHg 80%
    18:00 -6°C° 0 mm 2 mps 625 mmHg 85%
    19:00 -7°C° 0 mm 2 mps 625 mmHg 82%
    20:00 -7°C° 0 mm 2 mps 625 mmHg 79%
    21:00 -7°C° 0 mm 2 mps 626 mmHg 76%
    22:00 -7°C° 0 mm 2 mps 626 mmHg 73%
    23:00 -7°C° 0 mm 2 mps 626 mmHg 71%

    20 December, Wednesday

    Time Temperature Precipitation Wind Pressure Humidity
    00:00 -7°C° 0 mm 2 mps 626 mmHg 69%
    01:00 -7°C° 0 mm 2 mps 626 mmHg 67%
    02:00 -7°C° 0 mm 2 mps 626 mmHg 65%
    03:00 -7°C° 0 mm 2 mps 626 mmHg 63%
    04:00 -7°C° 0 mm 2 mps 626 mmHg 62%
    05:00 -7°C° 0 mm 2 mps 626 mmHg 61%
    06:00 -7°C° 0 mm 2 mps 626 mmHg 60%
    07:00 -6°C° 0 mm 2 mps 627 mmHg 58%
    08:00 -4°C° 0 mm 2 mps 627 mmHg 56%
    09:00 -3°C° 0 mm 2 mps 628 mmHg 54%
    10:00 -2°C° 0 mm 2 mps 629 mmHg 54%
    11:00 +1°C° 0 mm 2 mps 629 mmHg 53%
    12:00 +3°C° 0 mm 2 mps 630 mmHg 53%
    13:00 +2°C° 0 mm 2 mps 629 mmHg 56%
    14:00 +2°C° 0 mm 2 mps 629 mmHg 60%
    15:00 +1°C° 0 mm 2 mps 628 mmHg 64%
    16:00 -1°C° 0 mm 2 mps 628 mmHg 67%
    17:00 -3°C° 0 mm 2 mps 628 mmHg 69%
    18:00 -4°C° 0 mm 2 mps 627 mmHg 72%
    19:00 -4°C° 0 mm 2 mps 627 mmHg 70%
    20:00 -4°C° 0 mm 2 mps 628 mmHg 69%
    21:00 -4°C° 0 mm 2 mps 628 mmHg 67%
    22:00 -4°C° 0 mm 2 mps 628 mmHg 68%
    23:00 -4°C° 0 mm 2 mps 628 mmHg 68%

    21 December, Thursday

    Time Temperature Precipitation Wind Pressure Humidity
    00:00 -4°C° 0 mm 2 mps 628 mmHg 68%
    01:00 -4°C° 0 mm 2 mps 628 mmHg 69%
    02:00 -4°C° 0 mm 2 mps 627 mmHg 69%
    03:00 -4°C° 0 mm 2 mps 627 mmHg 69%
    04:00 -4°C° 0 mm 2 mps 627 mmHg 70%
    05:00 -4°C° 0 mm 2 mps 627 mmHg 70%
    06:00 -4°C° 0 mm 2 mps 627 mmHg 70%
    07:00 -3°C° 0 mm 2 mps 628 mmHg 69%
    08:00 -2°C° 0 mm 2 mps 629 mmHg 67%
    09:00 +1°C° 0 mm 1 mps 629 mmHg 65%
    10:00 +3°C° 0 mm 1 mps 630 mmHg 63%
    11:00 +4°C° 0 mm 1 mps 630 mmHg 61%
    12:00 +6°C° 0 mm 1 mps 630 mmHg 59%
    13:00 +5°C° 0 mm 1 mps 630 mmHg 62%
    14:00 +5°C° 0 mm 1 mps 630 mmHg 65%
    15:00 +4°C° 0 mm 1 mps 629 mmHg 68%
    16:00 +2°C° 0 mm 1 mps 629 mmHg 72%
    17:00 +1°C° 0 mm 1 mps 628 mmHg 76%
    18:00 -3°C° 0 mm 2 mps 628 mmHg 80%
    19:00 -3°C° 0 mm 2 mps 628 mmHg 78%
    20:00 -3°C° 0 mm 2 mps 628 mmHg 77%
    21:00 -3°C° 0 mm 2 mps 628 mmHg 75%
    22:00 -3°C° 0 mm 2 mps 628 mmHg 75%
    23:00 -3°C° 0 mm 2 mps 628 mmHg 74%
    Show more